Tracking 29489 objects as of 10-Sep-2024
HD Live streaming from Space Station
objects crossing your sky now

FENGYUN 1C DEB

Track FENGYUN 1C DEB now!
10-day predictions


NORAD ID: 33674
Int'l Code: 1999-025DFK
Perigee: 833.1 km
Apogee: 1,151.6 km
Inclination: 98.6 °
Period: 104.8 minutes
Semi major axis: 7363 km
RCS: 0.0036 m2 (small)
Launch date: May 10, 1999
Source: People's Republic of China (PRC)
Launch site: Taiyaun Space Center, China (TSC)

Note: This is SATELLITE DEBRIS
Your satellite tracking list
Your tracking list is empty




NASA's NSSDC Master Catalog

Two Line Element Set (TLE):
1 33674U 99025DFK 24253.19237237  .00004606  00000-0  41753-2 0  9996
2 33674  98.6246 340.6888 0216238  35.0590 326.4580 13.74005630820468
Source of the keplerian elements: AFSPC